STARLINK-32523 (62165 NORAD) Tracking and Keplerian Element Data

This shows tracking and keplerian element data for the satellite.

Feedback or suggestion? Click here.




ElementValue
Catalog62165
NameSTARLINK-32523
Epoch Orbit1018
Epoch Day35.33335648
Epoch Year2025
RAAN89.119
Inclination69.9996
Eccentricity0.000318
Argument of Perigee274.9167
Mean Anonmoly261.1207
Mean Motion15.14564993
Decay Rate-0.01408144
L11 62165U 24225C 25035.33335648 -.01408144 00000+0 -82950-1 0 9993
L22 62165 69.9996 89.1190 0003180 274.9167 261.1207 15.14564993 10182



Live tracking and technical data element details for STARLINK-32523 (NORAD 62165). STARLINK-32523 can be tracked NOW for your location showing map with azimuth and elevation plus other details from your city location.







IsCatalogInMostPopularTable: catalog: 62165, numindb: 16
Update: records affected: 1



GetName: 62165 STARLINK-32523

Hit Count: updated at: Sat, 24 May 2025 15:49:05 GMT